Flag for Italy Weather past 2 weeks in Cagliari, Italy

Now
50 °F

Broken clouds.


Feels Like: 43 °F
Forecast: 44 / 52 °F
Wind: 23 mph from West

Location: Cagliari / Elmas

Current Time: Feb 1, 2015 at 1:46:51 PM

Latest Report: Feb 1, 2015 at 12:50 PM


Visibility: N/A

Pressure: 29.53 "Hg

Humidity: 71%

Dew point: 41 °F

Location of CagliariLocation

Historic Weather in Cagliari — Graph

°F

Cagliari temperature yesterday

Maximum temperature yesterday: 55 °F (at 2:50 PM)
Minimum temperature yesterday: 45 °F (at 11:20 PM)
Average temperature yesterday: 50 °F

Past Weeks' High & Low Weather Summary

 TemperatureHumidityPressure
High63 °F (Jan 30, 10:20 AM)100% (Jan 19, 1:50 AM)30.12 "Hg (Jan 19, 1:50 AM)
Low34 °F (Jan 19, 6:20 AM)38% (Jan 28, 2:50 PM)29.12 "Hg (Jan 31, 2:20 PM)
Average48 °F86%29.78 "Hg
* Reported Jan 17 12:20 PM — Feb 1 12:20 PM, Cagliari, Weather by CustomWeather, © 2014

Note: Actual official high and low records may vary slightly from our data, if they occured in-between our weather recording intervals... More about our weather records

Advertising

Cagliari weather history for previous 24 hours

 ConditionsComfort  
Time TempWeatherWind HumidityBarometerVisibility
12:20 PM
Feb 1
52 °FScattered clouds.16 mph72%29.50 "HgN/A
11:50 AM52 °FScattered clouds.13 mph67%29.50 "HgN/A
11:20 AM48 °FPassing clouds.9 mph82%29.50 "HgN/A
10:50 AM46 °FScattered clouds.12 mph82%29.50 "HgN/A
10:20 AM46 °FScattered clouds.12 mph87%29.50 "HgN/A
9:50 AM46 °FScattered clouds.8 mph87%29.50 "HgN/A
9:20 AM46 °FBroken clouds.12 mph82%29.47 "HgN/A
8:50 AM45 °FBroken clouds.10 mph87%29.47 "HgN/A
8:20 AM46 °FScattered clouds.14 mph82%29.47 "HgN/A
7:50 AM43 °FScattered clouds.1 mph93%29.45 "HgN/A
7:20 AM43 °FPassing clouds.3 mph93%29.45 "HgN/A
6:50 AM43 °FPassing clouds.6 mph93%29.42 "HgN/A
6:20 AM43 °FPassing clouds.6 mph93%29.42 "HgN/A
5:50 AM45 °FPassing clouds.1 mph93%29.42 "HgN/A
5:20 AM43 °FLight rain. Passing clouds.6 mph100%29.42 "HgN/A
4:50 AM43 °FPassing clouds.5 mph100%29.39 "HgN/A
4:20 AM45 °FPassing clouds.6 mph93%29.39 "HgN/A
3:50 AM45 °FLight rain. Passing clouds.10 mph93%29.39 "HgN/A
3:20 AM45 °FLight rain. Passing clouds.7 mph93%29.42 "HgN/A
2:50 AM45 °FLight rain. Passing clouds.6 mph93%29.39 "HgN/A
2:20 AM46 °FLight rain. Passing clouds.13 mph87%29.39 "HgN/A
1:50 AM48 °FLight rain. Passing clouds.23 mph82%29.36 "HgN/A
1:20 AM46 °FPassing clouds.3 mph87%29.36 "HgN/A
12:50 AM46 °FClear.7 mph87%29.36 "Hg10 mi
12:20 AM45 °FPassing clouds.5 mph100%29.36 "HgN/A
11:50 PM
Jan 31
45 °FPassing clouds.6 mph100%29.33 "HgN/A
11:20 PM45 °FPassing clouds.6 mph100%29.33 "HgN/A
10:50 PM48 °FPassing clouds.5 mph94%29.33 "HgN/A
10:20 PM48 °FPassing clouds.8 mph94%29.30 "HgN/A
9:20 PM48 °FLight rain. Passing clouds.10 mph94%29.27 "HgN/A
8:50 PM48 °FPassing clouds.8 mph100%29.27 "HgN/A
8:20 PM48 °FPartly cloudy.9 mph100%29.27 "HgN/A
7:50 PM50 °FSprinkles. Partly cloudy.13 mph100%29.24 "Hg5 mi
7:20 PM50 °FPassing clouds.7 mph100%29.21 "HgN/A
6:50 PM50 °FRain showers. Partly cloudy.7 mph100%29.21 "Hg5 mi
6:20 PM50 °FRain. Partly cloudy.2 mph100%29.18 "Hg5 mi
5:50 PM50 °FPartly cloudy.2 mph100%29.15 "HgN/A
5:20 PM50 °FLight rain. Broken clouds.3 mph100%29.15 "Hg5 mi
4:50 PM50 °FLight rain. Broken clouds.10 mph100%29.15 "Hg5 mi
4:20 PM50 °FScattered clouds.5 mph100%29.15 "HgN/A
3:50 PM52 °FHeavy rain. Scattered clouds.3 mph94%29.15 "Hg4 mi
3:20 PM54 °FLight rain. Scattered clouds.7 mph94%29.15 "HgN/A
2:50 PM55 °FScattered clouds.1 mph88%29.15 "HgN/A
2:20 PM54 °FScattered clouds.3 mph88%29.12 "HgN/A
1:50 PM54 °FScattered clouds.5 mph94%29.15 "HgN/A
1:20 PM52 °FScattered clouds.1 mph100%29.15 "HgN/A
Weather by CustomWeather, © 2014

See weather overviewHow to use our weather pages